Location: ?????? ??????
(44.3742°N, 135.2221°E)
Time: 16:55:13
(UTC+00:00)

NOSS 3-4 (A) - Pass Details

Date: 19 May 2025
Orbit: 784 x 1427 km, 63.4° (Epoch: 18 June)

Event Time Altitude Azimuth Distance (km) Brightness Sun altitude
Exits shadow 18:31:23 11° 238° (WSW) 2,279 4.8 -9.0°
Maximum altitude 18:36:23 52° 314° (NW) 1,026 3.6 -8.3°
Drops below altitude 10° 18:42:08 10° 31° (NNE) 2,591 7.0 -7.5°
Sets 18:44:54 0° 36° (NE) 3,626 8.2 -7.1°
